Regional Weather Roundup
Issued by NWS Kansas City/Pleasant Hill, MO

Home | Current Version | Previous Version | Text Only | Print | Product List | Glossary On
Versions: 1 2 3 4 5 6 7 8 9 10 11 12 13 14 15 16 17 18 19 20 21 22 23 24 25 26 27 28
000
ASUS43 KEAX 210710
RWREAX

WEATHER ROUNDUP FOR EASTERN KANSAS AND NORTHWEST MISSOURI
NATIONAL WEATHER SERVICE KANSAS CITY/PLEASANT HILL MO
200 AM CDT MON AUG 21 2017

KSZ040-057-103>105-MOZ028-029-037-043-210800-
...KANSAS CITY METROPOLITAN AREA...

CITY           SKY/WX    TMP DP  RH WIND       PRES   REMARKS
K.C. INTL      PTCLDY    74  67  78 S10       29.99F
K.C. DOWNTOWN  CLOUDY    80  70  71 SW9       29.98F
LEES SUMMIT    CLOUDY    77  68  73 S15       30.00F
OLATHE - IXD   PTCLDY    74  68  81 S12       30.01F
OLATHE - OJC   PTCLDY    74  68  81 S12       30.01F
LAWRENCE       CLEAR     76  70  82 S13       29.99F

$$

MOZ001>008-011>017-020>025-030>033-038>040-044>046-053-054-210800-
...NORTHERN AND CENTRAL MISSOURI...

CITY           SKY/WX    TMP DP  RH WIND       PRES   REMARKS
ST. JOSEPH     CLEAR     77  70  79 S12       29.96F
MOSBY          MOSUNNY   72  64  78 CALM      29.99F
WARRENSBURG    CLOUDY    70  64  83 S5        30.00F
WHITEMAN AFB   MOCLDY    73  70  91 S10       30.00F
CLINTON        MOCLDY    70  66  88 S5        30.04S
SEDALIA        PTCLDY    70  67  90 S9        30.04F
WARSAW         NOT AVBL
CHILLICOTHE      N/A     72  69  90 CALM      30.01S
KIRKSVILLE     CLOUDY    68  65  90 S6        30.04R

$$

MOZ041-047>049-056>058-063>065-088>090-097-210800-
...EASTERN AND SOUTHERN MISSOURI...

CITY           SKY/WX    TMP DP  RH WIND       PRES   REMARKS
ST. LOUIS INTL CLOUDY    80  74  81 S7        30.07F
SPIRIT OF STL  CLOUDY    74  73  97 CALM      30.05F
COLUMBIA       CLOUDY    72  71  97 CALM      30.04F
JEFFERSON CITY CLOUDY    76  74  93 E5        30.03F
ROLLA          PTCLDY    74  72  93 S7        30.09F
OSAGE BEACH    CLOUDY    71  68  90 SE5       30.06F
SPRINGFIELD    CLEAR     71  70  96 S12       30.08F
BRANSON        CLEAR     73  72  94 S6        30.11F
JOPLIN         CLOUDY    77  71  82 SE9       30.06F
WEST PLAINS    CLEAR     75  71  87 S7        30.12F

$$

IAZ060-094-KSZ022-034>040-054-083-096-NEZ052-066-093-210800-
...KANSAS...SOUTHEAST NEBRASKA AND IOWA...

CITY           SKY/WX    TMP DP  RH WIND       PRES   REMARKS
TOPEKA         CLEAR     77  73  87 S6        29.99F
MANHATTAN      CLEAR     80  72  76 SW8       29.98F
EMPORIA        CLOUDY    77  72  84 S13       30.01F
CHANUTE        CLOUDY    76  72  87 E5        30.04F
WICHITA        CLOUDY    79  73  82 S14       30.02S
OMAHA          CLOUDY    74  67  78 NE10      29.98R
LINCOLN        MOCLDY    80  72  76 S14       29.91F
FALLS CITY     CLEAR     80  75  84 S14       29.93F
LAMONI         CLEAR     70  65  84 SE8       30.00S
DES MOINES     CLOUDY    73  64  73 VRB5      30.01R THUNDER

$$





USA.gov is the U.S. government's official web portal to all federal, state and local government web resources and services.